Home > Time Zones > World Clock > Weather > Spain > Palma > Past weeks

Flag for Spain Weather past 2 weeks in Palma, Majorca, Spain

Now
55 °F

Clear.


Feels Like: 55 °F
Forecast: 57 / 80 °F
Wind: No wind

Location: Palma De Mallorca / Son San Juan

Current Time: May 29, 2015 at 3:11:28 AM

Latest Report: May 29, 2015 at 2:30 AM


Visibility: 10 mi

Pressure: 30.07 "Hg

Humidity: 82%

Dew point: 50 °F

Location of PalmaLocation

Historic Weather in Palma — Graph

°F

Palma temperature yesterday

Maximum temperature yesterday: 75 °F (at 3:30 PM)
Minimum temperature yesterday: 54 °F (at 5:30 AM)
Average temperature yesterday: 66 °F

Past Weeks' High & Low Weather Summary

 TemperatureHumidityPressure
High86 °F (May 14, 4:30 PM)100% (May 14, 3:00 AM)30.24 "Hg (May 14, 3:00 AM)
Low45 °F (May 23, 6:30 AM)27% (May 23, 4:30 PM)29.77 "Hg (May 14, 9:30 PM)
Average65 °F65%30.05 "Hg
* Reported May 14 2:00 AM — May 29 2:00 AM, Palma, Weather by CustomWeather, © 2015

Note: Actual official high and low records may vary slightly from our data, if they occured in-between our weather recording intervals... More about our weather records

Advertising

Palma weather history for previous 24 hours

 ConditionsComfort  
Time TempWeatherWind HumidityBarometerVisibility
2:00 AM
Fri, May 29
55 °FClear.1 mph88%30.07 "Hg10 mi
1:30 AM57 °FClear.No wind82%30.07 "Hg10 mi
12:00 AM57 °FClear.No wind82%30.07 "Hg10 mi
11:30 PM
Thu, May 28
61 °FClear.No wind72%30.07 "Hg10 mi
11:00 PM63 °FClear.No wind73%30.07 "Hg10 mi
10:30 PM64 °FClear.No wind73%30.07 "Hg10 mi
10:00 PM66 °FSunny.2 mph68%30.07 "Hg10 mi
9:30 PM66 °FSunny.2 mph64%30.07 "Hg10 mi
9:00 PM68 °FSunny.5 mph60%30.07 "Hg10 mi
8:30 PM70 °FSunny.8 mph57%30.07 "Hg10 mi
8:00 PM70 °FSunny.9 mph57%30.07 "Hg10 mi
7:30 PM72 °FPassing clouds.12 mph50%30.07 "HgN/A
7:00 PM72 °FPassing clouds.12 mph53%30.07 "HgN/A
6:30 PM72 °FPassing clouds.13 mph53%30.09 "HgN/A
6:00 PM73 °FPassing clouds.13 mph50%30.09 "HgN/A
5:30 PM73 °FPassing clouds.13 mph47%30.09 "HgN/A
5:00 PM73 °FPassing clouds.13 mph53%30.09 "HgN/A
4:30 PM75 °FPassing clouds.12 mph50%30.09 "HgN/A
4:00 PM73 °FPassing clouds.13 mph50%30.12 "HgN/A
3:30 PM75 °FPassing clouds.14 mph57%30.12 "HgN/A
3:00 PM73 °FPassing clouds.13 mph61%30.12 "HgN/A
2:30 PM73 °FPassing clouds.13 mph57%30.12 "HgN/A
2:00 PM73 °FPassing clouds.13 mph65%30.12 "HgN/A
1:30 PM73 °FPassing clouds.12 mph61%30.15 "HgN/A
1:00 PM73 °FPassing clouds.12 mph65%30.12 "HgN/A
12:30 PM73 °FPassing clouds.12 mph65%30.15 "HgN/A
12:00 PM73 °FPassing clouds.10 mph65%30.15 "HgN/A
11:30 AM72 °FPassing clouds.7 mph65%30.15 "HgN/A
11:00 AM72 °FSunny.5 mph61%30.15 "Hg10 mi
10:30 AM72 °FPassing clouds.3 mph65%30.15 "HgN/A
10:00 AM70 °FSunny.1 mph69%30.15 "Hg10 mi
9:30 AM68 °FSunny.1 mph73%30.15 "Hg10 mi
9:00 AM66 °FSunny.No wind78%30.15 "Hg10 mi
8:30 AM64 °FSunny.No wind73%30.15 "Hg10 mi
8:00 AM59 °FSunny.No wind88%30.12 "Hg10 mi
7:30 AM55 °FSunny.No wind88%30.12 "Hg10 mi
7:00 AM54 °FClear.No wind88%30.12 "Hg10 mi
6:30 AM54 °FPassing clouds.No wind88%30.12 "HgN/A
6:00 AM54 °FPassing clouds.1 mph88%30.12 "HgN/A
5:30 AM54 °FPassing clouds.No wind88%30.12 "HgN/A
4:30 AM55 °FPassing clouds.No wind88%30.12 "HgN/A
4:00 AM55 °FPassing clouds.2 mph88%30.12 "HgN/A
3:30 AM55 °FPassing clouds.1 mph88%30.12 "HgN/A
3:00 AM55 °FPassing clouds.3 mph88%30.12 "HgN/A
Weather by CustomWeather, © 2015

See weather overviewHow to use our weather pages